Location: Calvin Observatory
(42.9309°N, 85.5886°W)
Time: 06:39:55
(UTC-04:00)

ISS - Visible Passes

Search period start: 30 May 2016 00:00
Search period end: 09 June 2016 00:00
Orbit: 402 x 404 km, 51.6° (Epoch: 30 May)

Date Brightness Start Highest point End Pass type
(mag) Time Alt. Az. Time Alt. Az. Time Alt. Az.
30 May -0.3 01:18:02 10° NW 01:20:21 18° N 01:22:41 10° NE visible
30 May -1.7 02:54:25 10° NW 02:57:29 36° NNE 03:00:31 10° E visible
30 May -2.7 04:30:54 10° WNW 04:33:54 34° SW 04:36:52 10° SSE visible
30 May -1.4 22:47:11 10° W 22:50:10 32° NNW 22:53:10 10° NE visible
31 May -0.3 00:25:02 10° NW 00:27:19 17° N 00:29:38 10° NE visible
31 May -1.1 02:01:44 10° NW 02:04:33 26° NNE 02:05:58 19° ENE visible
31 May -0.8 03:37:59 10° WNW 03:38:25 13° WNW 03:38:25 13° WNW visible
31 May -2.2 21:54:07 10° WSW 21:57:18 48° NNW 22:00:29 10° NE visible
31 May -0.4 23:31:52 10° NW 23:34:18 19° N 23:36:43 10° NE visible
01 Jun -0.7 01:09:00 10° NW 01:11:35 21° NNE 01:13:33 13° NE visible
01 Jun -0.9 02:45:12 10° NW 02:46:07 17° NW 02:46:07 17° NW visible
01 Jun -0.7 22:38:38 10° WNW 22:41:17 22° NNW 22:43:57 10° NE visible
02 Jun -0.5 00:16:11 10° NW 00:18:34 18° N 00:20:55 10° NE visible
02 Jun -1.4 01:52:30 10° NW 01:54:26 28° NNW 01:54:26 28° NNW visible
02 Jun -0.4 23:23:13 10° NW 23:25:30 17° N 23:27:48 10° NE visible
03 Jun -1.4 00:59:49 10° NW 01:02:42 28° NNE 01:03:01 28° NNE visible
03 Jun -0.5 22:30:05 10° NW 22:32:27 18° N 22:34:50 10° NE visible
04 Jun -0.9 00:07:06 10° NW 00:09:44 22° NNE 00:11:42 14° ENE visible
04 Jun -0.9 01:43:16 10° NW 01:44:16 18° NW 01:44:16 18° NW visible
04 Jun -0.7 23:14:17 10° NW 23:16:42 19° N 23:19:07 10° NE visible
05 Jun -2.0 00:50:32 10° NW 00:53:03 39° NNW 00:53:03 39° NNW visible
05 Jun -0.6 22:21:21 10° NW 22:23:39 17° N 22:25:58 10° NE visible
05 Jun -1.7 23:57:51 10° NW 00:00:49 31° NNE 00:01:52 25° ENE visible
06 Jun -0.4 01:34:13 10° WNW 01:34:28 12° WNW 01:34:28 12° WNW visible
06 Jun -1.2 23:05:08 10° NW 23:07:51 23° NNE 23:10:33 10° ENE visible
07 Jun -1.9 00:41:20 10° WNW 00:43:19 34° WNW 00:43:19 34° WNW visible
07 Jun -0.9 22:12:20 10° NW 22:14:49 19° N 22:17:17 10° ENE visible
07 Jun -2.8 23:48:33 10° NW 23:51:46 54° NNE 23:52:14 49° ENE visible
08 Jun -2.0 22:55:50 10° NW 22:58:53 34° NNE 23:01:10 15° E visible
